Location: Asheville, NC
(35.6000°N, 82.5500°W)
Time: 17:00:46
(UTC-05:00)

Vanguard 1 Rocket - Pass Details

Date: 15 February 2018
Orbit: 655 x 4222 km, 34.3° (Epoch: 17 February)

Event Time Altitude Azimuth Distance (km) Brightness Sun altitude
Rises 21:57:37 0° 209° (SSW) 6,312 11.8 -45.9°
Reaches altitude 10° 22:01:34 10° 202° (SSW) 5,718 11.4 -46.6°
Enters shadow 22:08:18 27° 185° (S) 5,002 10.9 -47.9°
Exits shadow 22:47:52 - 72° (ENE) 8,060 12.0 -54.9°
Sets 22:48:28 0° 71° (ENE) 8,148 12.0 -55.0°
